Overview Statistics Trail Chart Weather Telemetry Raw packets
 

This is the latest recevied weather packets stored in our database for station/object HG8LXL-2. If no packets are shown the sender has not sent any weather packets the latest 10 day(s).

<< 13 14 15 16 17 18 19 >>
Time Temp. Humidity Pressure Rain* Wind** Luminosity Snow
1788342651 29.44° C 23% 1018 hPa - - - -
1788342351 30° C 22% 1018.1 hPa - - - -
1788342051 29.44° C 22% 1018.1 hPa - - - -
1788341751 31.11° C 20% 1018.1 hPa - - - -
1788341451 30.56° C 22% 1018 hPa - - - -
1788341151 30.56° C 21% 1018 hPa - - - -
1788340851 30° C 23% 1018 hPa - - - -
1788340551 30.56° C 22% 1018 hPa - - - -
1788340251 30° C 22% 1018 hPa - - - -
1788339951 30.56° C 23% 1018.1 hPa - - - -
1788339651 30.56° C 24% 1017.9 hPa - - - -
1788339354 30° C 24% 1017.9 hPa - - - -
1788339051 30.56° C 24% 1017.9 hPa - - - -
1788338751 30° C 25% 1018 hPa - - - -
1788338452 29.44° C 24% 1018 hPa - - - -
1788338152 29.44° C 26% 1018.1 hPa - - - -
1788337855 28.89° C 26% 1018.1 hPa - - - -
1788337551 28.33° C 27% 1018 hPa - - - -
1788337251 28.33° C 28% 1018.1 hPa - - - -
1788336951 28.89° C 25% 1018 hPa - - - -
1788336651 28.89° C 27% 1017.9 hPa - - - -
1788336351 28.33° C 28% 1017.9 hPa - - - -
1788336054 28.33° C 27% 1018 hPa - - - -
1788335751 27.78° C 29% 1018 hPa - - - -
1788335451 27.78° C 29% 1018.1 hPa - - - -

* Rain since midnight (hover to see other rain measurements)
** Current wind speed in m/s (hover to see current wind gust speed)